Overview Statistics Trail Chart Weather Telemetry Raw packets
 

This is the latest recevied weather packets stored in our database for station/object DG6YGE-6. If no packets are shown the sender has not sent any weather packets the latest 10 day(s).

<< 25 26 27 28 29 30 31 >>
Time Temp. Humidity Pressure Rain* Wind** Luminosity Snow
1788282552 18.33° C 85% 1017.8 hPa 0 mm - 73 W/m² -
1788281952 18.33° C 85% 1017.8 hPa 0 mm - 137 W/m² -
1788281352 18.33° C 85% 1017.8 hPa 0 mm - 85 W/m² -
1788280752 18.33° C 85% 1017.8 hPa 0 mm - 149 W/m² -
1788280151 18.33° C 85% 1017.8 hPa 0 mm - 124 W/m² -
1788279551 18.33° C 85% 1017.7 hPa 0 mm - 174 W/m² -
1788278952 18.33° C 85% 1017.8 hPa 0 mm - 167 W/m² -
1788278352 18.33° C 85% 1017.8 hPa 0 mm - 139 W/m² -
1788277752 18.33° C 84% 1017.8 hPa 0 mm - 115 W/m² -
1788277152 18.33° C 84% 1017.7 hPa 0 mm - 234 W/m² -
1788276552 18.33° C 83% 1017.8 hPa 0 mm - 110 W/m² -
1788275952 18.33° C 82% 1017.8 hPa 0 mm - 133 W/m² -
1788275352 18.33° C 84% 1017.7 hPa 0 mm - 319 W/m² -
1788274752 18.33° C 84% 1017.6 hPa 0 mm - 406 W/m² -
1788274152 18.33° C 83% 1017.7 hPa 0 mm - 445 W/m² -
1788273552 18.33° C 81% 1017.7 hPa 0 mm - 220 W/m² -
1788272951 18.89° C 80% 1017.7 hPa 0 mm - 204 W/m² -
1788272351 18.89° C 82% 1017.6 hPa 0 mm - 305 W/m² -
1788271751 18.89° C 80% 1017.6 hPa 0 mm - 232 W/m² -
1788271152 18.89° C 82% 1017.5 hPa 0 mm - 213 W/m² -
1788270551 18.89° C 83% 1017.6 hPa 0 mm - 159 W/m² -
1788269951 18.89° C 84% 1017.7 hPa 0 mm - 373 W/m² -
1788269352 18.33° C 86% 1017.6 hPa 0 mm - 214 W/m² -
1788268751 17.78° C 92% 1017.7 hPa 0 mm - 711 W/m² -
1788268161 17.78° C 92% 1017.7 hPa 0 mm - 279 W/m² -

* Rain latest hour (hover to see other rain measurements)
** Current wind speed in m/s (hover to see current wind gust speed)